Weather Roundup
Issued by NWS Springfield, MO

Home | Current Version | Previous Version | Text Only | Print | Product List | Glossary On
Versions: 1 2 3 4 5 6 7 8 9 10 11 12 13 14 15 16 17 18 19 20 21 22 23 24 25 26 27 28 29 30 31 32 33 34 35 36 37 38 39 40 41 42 43 44 45 46 47 48 49 50
000
NZUS99 KSGF 290957
HRRSGF

HOURLY WEATHER
NATIONAL WEATHER SERVICE SPRINGFIELD MO
500 AM CDT THU SEP 29 2016

......SGF CWA......

CITY           SKY/WX    TMP DP  RH WIND       PRES   REMARKS
SPRINGFIELD    CLEAR     49  45  86 NW5       30.24R
JOPLIN         CLEAR     48  46  93 N6        30.27R
WEST PLAINS    CLEAR     52  47  83 N9        30.20R
ROLLA          CLEAR     49  47  93 NW7       30.19R

......SURROUNDING SGF CWA......

CITY           SKY/WX    TMP DP  RH WIND       PRES   REMARKS
CHANUTE        CLEAR     50  47  89 NW6       30.29R
PARSONS        CLEAR     47  45  93 N3        30.30R
COFFEYVILLE    CLEAR     49  46  90 N7        30.29R
EMPORIA        CLEAR     49  46  90 N5        30.32R
HARRISON AR    CLEAR     50  46  86 NW6       30.23R

......KANSAS AND MISSOURI......

CITY           SKY/WX    TMP DP  RH WIND       PRES   REMARKS
KANSAS CTY INT PTCLDY    49  45  86 N7        30.30R
SEDALIA        CLEAR     50  47  89 N6        30.27R
ST JOSEPH      CLEAR     46  44  93 NW5       30.33R
ST LOUIS       PTCLDY    55  49  80 NW9       30.14R
WICHITA        PTCLDY    52  47  83 N6        30.33R
TOPEKA         CLEAR     50  46  86 SW3       30.33R
OLATHE         CLEAR     51  46  83 N6        30.30R

......TENNESSEE......

CITY           SKY/WX    TMP DP  RH WIND       PRES   REMARKS
MEMPHIS        NOT AVBL
NASHVILLE      CLEAR     52  46  80 W5        30.05R

......ARKANSAS.......

CITY           SKY/WX    TMP DP  RH WIND       PRES   REMARKS
FAYETTEVILLE   CLEAR     47  47 100 CALM      30.24R
FT SMITH       CLEAR     58  47  66 N3        30.22R
LITTLE ROCK    CLEAR     57  46  66 N7        30.17R

......OKLAHOMA.......

CITY           SKY/WX    TMP DP  RH WIND       PRES   REMARKS
TULSA          CLEAR     50  49  96 NW6       30.27R
PONCA CITY     CLEAR     47  44  90 CALM      30.30R
MCALESTER      CLEAR     56  49  77 CALM      30.23R
OKLAHOMA CITY  PTCLDY    56  48  74 NE12      30.28R

......IOWA............

CITY           SKY/WX    TMP DP  RH WIND       PRES   REMARKS
DES MOINES     NOT AVBL
QUAD CITIES    CLEAR     55  49  80 N9        30.21R

......ILLINOIS........

CITY           SKY/WX    TMP DP  RH WIND       PRES   REMARKS
QUINCY         NOT AVBL
CHICAGO        CLOUDY    62  56  80 NE15G29   30.09R




USA.gov is the U.S. government's official web portal to all federal, state and local government web resources and services.